Regional Weather Roundup
Issued by NWS

Home | Current Version | Previous Version | Graphics & Text | Print | Product List | Glossary On
Versions: 1 2 3 4 5 6 7 8 9 10 11 12 13 14 15 16 17 18 19 20 21 22 23 24 25 26 27 28 29 30 31 32 33 34 35 36 37 38 39 40 41 42 43 44 45 46 47 48 49 50
000
ASUS43 KDTX 240010
RWRMI
MICHIGAN HOURLY REGIONAL WEATHER ROUNDUP
NATIONAL WEATHER SERVICE DETROIT/PONTIAC MI
800 PM EDT SAT MAY 23 2015

NOTE: "FAIR" INDICATES FEW OR NO CLOUDS BELOW 12,000 FEET WITH NO
SIGNIFICANT WEATHER AND/OR OBSTRUCTION TO VISIBILITY.

MIZ047>049-052>055-059>063-066>070-074>076-081>083-240100-
SOUTHEAST LOWER MICHIGAN

CITY           SKY/WX    TMP DP  RH WIND       PRES   REMARKS
ADRIAN         CLEAR     75  40  28 W3        30.26F
6HR MIN TEMP:  72; 6HR MAX TEMP:  77;

ALMA           CLEAR     74  35  24 SW7       30.24F
ANN ARBOR      CLEAR     72  41  32 SW3       30.26F
BAD AXE        CLEAR     71  32  24 W5        30.23F
CARO           CLEAR     70  37  29 SW9       30.23F
DETROIT CITY   CLEAR     71  37  28 SW7       30.27F
6HR MIN TEMP:  70; 6HR MAX TEMP:  73;

DETROIT        PTCLDY    69  40  34 SE8       30.28F
6HR MIN TEMP:  69; 6HR MAX TEMP:  76;

FLINT          CLEAR     73  33  23 SW7       30.26S
6HR MIN TEMP:  73; 6HR MAX TEMP:  77;

GROSSE ILE     CLEAR     64  43  45 SE7       30.26F
HILLSDALE      CLEAR     75  39  27 CALM      30.26F
6HR MIN TEMP:  73; 6HR MAX TEMP:  78;

HOWELL         CLEAR     72  34  25 W5        30.25F
6HR MIN TEMP:  71; 6HR MAX TEMP:  75;


CITY           SKY/WX    TMP DP  RH WIND       PRES   REMARKS
JACKSON        CLEAR     72  43  35 NW3       30.25F
6HR MIN TEMP:  72; 6HR MAX TEMP:  76;

LAMBERTVILLE   CLEAR     70  43  37 CALM      30.27F
LANSING        CLEAR     73  38  27 SW7       30.25F
6HR MIN TEMP:  72; 6HR MAX TEMP:  76;

LAPEER         FAIR      72  29  20 W5        30.26S
MASON          CLEAR     72  37  28 CALM      30.25F
MONROE         CLEAR     66  45  45 E5        30.26F
MT. CLEMENS    PTCLDY    65  44  46 S7        30.25S
6HR MIN TEMP:  65; 6HR MAX TEMP:  71;

PONTIAC        PTCLDY    72  32  23 VRB3      30.26F
6HR MIN TEMP:  70; 6HR MAX TEMP:  74;

PORT HOPE        N/A     73  33  23 VRB6      30.21F
6HR MIN TEMP:  70; 6HR MAX TEMP:  75;

PORT HURON     CLEAR     68  39  34 S7        30.27S
TRI CITIES     CLEAR     73  37  27 W8        30.24S
6HR MIN TEMP:  73; 6HR MAX TEMP:  77;

MIDLAND        FAIR      74  33  22 W7        30.22S
TROY           CLEAR     75  32  21 S7        30.28S
SAGINAW HB     CLEAR     73  30  20 SW10      30.23F
$$
MIZ043>046-050>051-056>058-064>065-071>073-077>080-240100-
SOUTHWEST LOWER MICHIGAN

CITY           SKY/WX    TMP DP  RH WIND       PRES   REMARKS
BATTLE CREEK   CLEAR     74  43  32 SW6       30.25F
6HR MIN TEMP:  72; 6HR MAX TEMP:  77;

BENTON HARBOR  SUNNY     74  41  30 N3        30.22F
6HR MIN TEMP:  74; 6HR MAX TEMP:  76;

BIG RAPIDS     SUNNY     71  29  21 SW8       30.24S
6HR MIN TEMP:  71; 6HR MAX TEMP:  75;

COLDWATER      CLEAR     73  42  32 S3        30.24F
6HR MIN TEMP:  72; 6HR MAX TEMP:  76;

FREMONT        FAIR      69  32  25 SW3       30.24S
HOLLAND        SUNNY     73  46  38 W5        30.24F
6HR MIN TEMP:  73; 6HR MAX TEMP:  77;

GRAND RAPIDS   MOSUNNY   75  37  25 W14       30.24F
6HR MIN TEMP:  74; 6HR MAX TEMP:  78;

IONIA          FAIR      74  39  27 W7        30.23F
KALAMAZOO      SUNNY     75  43  31 SW5       30.23F
6HR MIN TEMP:  73; 6HR MAX TEMP:  78;

LUDINGTON      MOSUNNY   71  35  26 S6        30.22F
MARSHALL       CLEAR     74  42  30 CALM      30.24F
MOUNT PLEASANT CLEAR     73  34  23 SW10      30.23S
6HR MIN TEMP:  73; 6HR MAX TEMP:  76;

MUSKEGON       PTSUNNY   72  37  28 SW3       30.24F
6HR MIN TEMP:  70; 6HR MAX TEMP:  75;

SOUTH HAVEN    SUNNY     75  37  25 CALM      30.22F
$$
MIZ016>042-240100-
NORTHERN LOWER MICHIGAN

CITY           SKY/WX    TMP DP  RH WIND       PRES   REMARKS
ALPENA         CLEAR     73  33  23 VRB7      30.18S
6HR MIN TEMP:  73; 6HR MAX TEMP:  79;

BEAVER ISLAND  MOSUNNY   62  26  25 SW17G28   30.18S
6HR MIN TEMP:  62; 6HR MAX TEMP:  66;

BELLAIRE       MOSUNNY   71  35  26 SW5       30.20F
6HR MIN TEMP:  71; 6HR MAX TEMP:  74;

CADILLAC       MOSUNNY   70  32  24 SW10      30.23S
CHARLEVOIX     MOSUNNY   69  38  31 SW8G16    30.22S
6HR MIN TEMP:  69; 6HR MAX TEMP:  73;

FRANKFORT      MOSUNNY   67  24  19 S8        30.21F
GAYLORD        MOSUNNY   70  30  22 W13       30.21F
6HR MIN TEMP:  70; 6HR MAX TEMP:  74;

GRAYLING       SUNNY     70  32  24 W5        30.22F
HARBOR SPRINGS MOSUNNY   65  38  35 W6        30.19S
HOUGHTON LAKE  SUNNY     68  40  35 W6        30.22F
6HR MIN TEMP:  68; 6HR MAX TEMP:  75;

MANISTEE       MOSUNNY   70  34  26 SW6       30.23F
OSCODA         CLEAR     74  35  23 W12       30.18F
PELLSTON       SUNNY     69  35  28 W12G17    30.18F
6HR MIN TEMP:  69; 6HR MAX TEMP:  72;

ROGERS CITY    CLEAR     72  36  27 W9        30.18S
TRAVERSE CITY  MOSUNNY   73  35  25 SW9       30.19F
6HR MIN TEMP:  73; 6HR MAX TEMP:  77;

$$
MIZ007>008-015-240100-
EASTERN UPPER MICHIGAN

CITY           SKY/WX    TMP DP  RH WIND       PRES   REMARKS
KINROSS        SUNNY     64  34  32 SW10      30.15F
6HR MIN TEMP:  64; 6HR MAX TEMP:  70;

MACKINAC ISLAN SUNNY     61  34  37 W13G29    30.16S
6HR MIN TEMP:  58; 6HR MAX TEMP:  62;

NEWBERRY       SUNNY     65  36  33 SW16G25   30.14S
6HR MIN TEMP:  65; 6HR MAX TEMP:  73;

S. S. MARIE    SUNNY     67  36  31 W15G24    30.13S
6HR MIN TEMP:  67; 6HR MAX TEMP:  74;

MUNISING         N/A     75  40  28 S6        30.11F
6HR MIN TEMP:  60; 6HR MAX TEMP:  80;

$$
MIZ004>006-011>014-085-240100-
CENTRAL UPPER MICHIGAN

CITY           SKY/WX    TMP DP  RH WIND       PRES   REMARKS
MANISTIQUE     MOSUNNY   51  37  60 S7        30.16F
6HR MIN TEMP:  50; 6HR MAX TEMP:  54;

ESCANABA       MOSUNNY   64  39  39 S12G17    30.13S
6HR MIN TEMP:  64; 6HR MAX TEMP:  68;

MENOMINEE      MOSUNNY   73  39  29 SW12      30.14F
6HR MIN TEMP:  73; 6HR MAX TEMP:  77;

SAWYER-GWINN   PTSUNNY   73  36  25 E12       30.12F
$$
MIZ001>003-009>011-084-240100-
WESTERN UPPER MICHIGAN

CITY           SKY/WX    TMP DP  RH WIND       PRES   REMARKS
IRON MOUNTAIN  PTSUNNY   76  31  19 W5        30.13F
6HR MIN TEMP:  75; 6HR MAX TEMP:  80;

HOUGHTON       SUNNY     73  36  25 W13       30.10F
6HR MIN TEMP:  73; 6HR MAX TEMP:  77;

COPPER HARBOR    N/A     72  35  25 VRB7      30.07S
6HR MIN TEMP:  69; 6HR MAX TEMP:  80;

IRONWOOD       MOSUNNY   73  36  25 W8        30.10S
6HR MIN TEMP:  73; 6HR MAX TEMP:  77;

$$

ABBREVIATIONS USED IN REMARKS
   TC - TEMPERATURE IN CELSIUS
  WCI - WIND CHILL INDEX
   HX - HEAT INDEX
  VSB - VISIBILITY




USA.gov is the U.S. government's official web portal to all federal, state and local government web resources and services.